Wind_Speed
2 3 6 7 6 0 2 1 2 3 4 5 7 7 6 7 4 6 9 9 7 11 14 20 22 25 29 33 34 38 39 39 37 38 36 35 37 37 36 35 35 34 34 33
4 5 9 3 6 4 2 2 4 4 2 3 5 8 7 7 6 8 11 8 8 7 8 11 20 27 30 35 38 40 41 42 44 41 41 31 32 36 41 40 40 41 38 35
4 5 3 3 2 3 3 4 3 4 3 1 2 7 2 4 4 6 8 6 6 9 10 7 11 24 30 34 39 42 46 46 47 46 35 31 26 30 34 39 40 42 43 40
5 5 4 4 4 5 3 6 6 2 4 2 2 4 5 4 5 5 8 8 9 10 7 7 10 17 28 36 37 40 45 48 48 44 37 37 35 31 35 36 41 39 41 41
6 3 4 4 5 5 7 2 3 4 4 2 2 3 6 3 5 8 7 9 9 11 11 13 12 23 28 27 34 38 42 46 48 43 45 40 35 36 31 28 32 40 38 39
6 2 5 5 3 6 4 5 8 5 3 3 4 4 5 4 8 4 5 6 8 8 8 9 13 16 23 25 30 34 39 44 43 42 44 39 39 35 33 33 33 33 37 40
6 2 3 3 3 2 4 6 3 3 3 5 4 3 8 5 7 6 8 8 8 4 5 5 7 8 15 20 25 30 35 39 39 39 36 40 38 33 39 39 37 35 34 35
1 6 2 2 5 5 2 6 5 2 2 4 1 4 6 6 8 5 7 4 5 6 3 3 5 8 12 16 18 21 23 26 26 33 37 37 37 37 35 37 35 33 32 28
2 5 5 3 2 4 3 1 4 6 4 2 3 7 10 4 3 3 6 5 8 6 5 5 1 3 4 5 9 13 17 20 20 23 26 34 37 36 38 36 32 32 33 26
5 3 2 6 1 4 2 4 3 4 1 3 5 5 6 5 7 5 7 10 7 2 3 1 1 2 2 1 3 7 9 11 13 15 19 23 28 31 32 30 32 32 33 25
5 3 6 3 4 1 5 3 6 5 4 5 1 6 7 7 7 9 9 9 8 7 6 4 2 2 3 2 3 5 6 7 8 9 11 14 18 21 23 27 29 27 25 24
5 5 1 7 2 1 2 1 4 5 4 1 3 6 2 7 10 9 10 9 7 6 7 4 3 2 4 5 3 3 4 5 6 8 10 12 13 16 21 25 27 27 27 26
7 2 3 9 7 4 4 2 5 5 3 4 4 6 3 7 8 7 9 8 7 7 6 4 2 3 5 6 7 7 7 7 10 12 14 12 13 17 20 23 24 27 21 22
8 4 6 6 7 3 4 3 3 4 3 3 6 7 12 10 10 8 8 7 8 7 5 4 4 5 9 11 12 11 11 11 13 15 16 15 14 18 19 24 25 24 11 10
4 3 5 5 6 4 5 7 5 7 6 5 8 7 12 10 10 9 4 4 4 6 7 7 6 6 11 15 17 15 15 14 13 16 17 17 17 17 20 27 28 21 13 20
2 2 3 4 4 5 6 8 6 7 5 7 6 8 10 8 5 5 7 6 8 8 8 8 8 7 11 20 22 18 18 16 13 13 15 14 15 14 19 22 24 21 15 14
3 6 4 7 3 5 8 8 7 6 6 6 6 10 3 5 7 8 10 10 9 8 8 9 9 9 18 22 22 20 18 16 14 13 11 12 12 14 18 22 22 20 14 16
6 5 3 3 3 4 8 5 6 7 8 7 7 8 7 7 4 5 4 6 9 8 8 7 7 14 23 24 24 21 17 17 14 12 11 10 11 13 14 16 18 17 17 19
3 5 2 3 4 6 6 6 5 3 7 5 7 8 2 1 3 6 7 7 8 7 8 11 18 22 24 24 23 19 17 17 15 14 12 11 11 12 14 16 18 19 18 18
6 5 4 3 2 5 5 8 4 3 4 5 3 6 5 4 2 9 4 4 9 9 13 16 22 21 21 25 17 16 20 19 21 19 15 11 11 11 11 14 17 20 20 19
1 2 3 3 4 6 6 11 5 4 6 11 4 8 8 6 5 2 4 4 6 12 18 22 20 21 25 19 15 20 21 25 26 18 14 13 11 12 11 12 13 15 15 15
6 4 4 2 1 5 3 5 3 6 6 6 6 4 6 6 7 5 6 7 7 9 16 19 14 19 25 21 18 22 22 28 22 18 16 16 14 14 12 12 13 12 14 16
2 6 4 7 6 4 4 5 7 5 7 7 6 6 5 5 6 6 7 8 7 8 13 19 19 22 26 24 22 20 31 22 18 19 20 19 16 16 13 13 13 13 14 15
2 2 1 2 3 5 7 8 5 4 7 9 7 9 4 6 7 8 6 7 6 10 13 21 18 17 22 28 26 31 25 20 18 22 23 21 20 19 17 16 16 17 18 17
3 3 0 5 7 7 6 7 6 11 12 10 7 3 5 4 7 4 6 7 7 11 18 20 19 20 25 31 30 30 30 23 21 25 25 25 24 22 21 21 22 21 21 20
2 1 0 5 8 4 8 8 9 6 6 8 6 8 6 6 7 5 7 7 7 12 21 21 23 22 29 28 29 30 28 26 25 21 21 24 25 26 25 23 21 22 21 18
Wind_Direction
35 37 249 212 210 34 117 203 241 259 217 173 235 267 241 215 193 223 228 220 224 233 233 232 229 223 216 218 214 218 216 217 219 216 220 224 225 225 228 231 233 231 232 234
5 262 267 261 199 193 184 267 259 275 256 155 304 273 259 190 227 212 225 221 221 239 232 238 224 222 212 217 217 216 219 217 219 218 219 218 225 230 230 233 235 235 234 235
197 261 52 186 232 230 226 210 219 218 61 119 28 304 161 231 220 211 226 215 208 227 236 225 220 217 214 211 213 214 219 221 220 219 217 220 225 229 234 236 239 234 234 236
233 268 237 278 271 160 302 207 224 170 117 216 32 276 304 310 268 232 238 220 220 237 227 229 220 222 217 218 218 217 218 221 223 217 213 213 215 218 225 226 232 234 232 234
264 202 236 251 232 149 234 34 172 102 92 34 331 60 271 324 267 260 255 245 225 221 218 230 223 227 228 222 223 221 222 224 222 217 217 216 217 221 223 226 234 236 234 234
244 310 195 220 235 175 106 58 39 51 72 356 283 154 277 199 214 255 261 243 247 264 218 234 241 241 237 231 227 224 223 224 223 220 220 217 219 222 225 228 241 246 246 241
319 227 263 206 309 110 90 69 344 1 10 225 293 122 252 266 248 227 223 252 268 242 255 236 233 231 241 233 229 229 228 227 229 225 224 223 227 228 233 234 240 249 253 245
25 342 212 205 207 201 109 149 158 229 222 270 191 222 256 226 262 221 253 221 278 288 269 138 212 234 240 244 244 239 235 234 240 237 237 236 235 235 241 243 244 248 255 252
156 275 309 221 278 138 175 220 165 103 12 33 276 294 305 304 296 149 211 224 248 268 328 1 51 241 274 267 257 253 248 253 253 254 250 246 243 241 245 245 246 247 253 254
187 325 297 286 44 38 136 149 33 14 154 288 299 294 243 295 254 192 225 233 243 229 279 153 56 76 55 349 279 282 286 284 283 274 267 262 257 251 250 250 246 244 246 244
130 132 286 357 21 294 7 18 50 114 121 169 239 271 217 245 257 242 235 236 220 201 215 202 210 256 313 313 303 305 307 308 304 295 284 273 265 259 253 247 246 238 228 212
182 139 286 248 286 261 262 117 117 108 275 106 146 271 242 271 265 240 226 225 204 193 213 219 232 294 292 304 320 328 323 329 323 315 307 299 284 270 254 242 237 232 219 205
183 16 20 347 356 12 49 1 94 101 81 206 141 264 303 319 302 255 231 212 195 195 206 232 289 292 285 286 288 290 289 296 305 317 324 314 285 268 251 241 233 220 207 243
88 124 156 188 209 176 288 255 149 127 119 210 230 279 301 293 271 265 237 193 179 199 203 234 271 262 263 267 272 274 277 281 294 306 313 307 291 271 238 225 208 193 226 205
103 179 175 242 223 197 238 249 208 195 210 185 257 212 265 263 251 241 229 174 170 213 224 231 243 250 256 261 261 259 259 266 283 299 305 304 297 285 238 215 209 210 229 215
22 202 172 282 279 198 270 275 252 235 230 245 247 270 238 277 240 160 198 184 212 226 235 239 240 240 248 250 256 256 253 252 262 276 290 292 293 284 249 216 223 226 244 222
125 140 131 248 360 3 304 244 222 233 211 181 216 242 272 270 225 212 213 208 216 230 237 237 233 234 247 258 265 256 244 237 245 259 271 275 272 265 238 218 223 227 239 223
143 118 126 243 47 245 257 253 232 242 275 237 277 263 222 248 259 259 246 207 227 233 241 246 243 252 260 266 268 266 246 232 236 242 256 267 259 256 239 225 225 227 230 222
95 121 117 170 200 290 323 10 344 325 290 296 250 281 340 70 54 283 203 219 222 221 235 245 256 260 266 270 274 262 239 231 232 239 245 250 248 248 240 227 214 214 210 216
72 65 124 115 203 242 243 291 301 150 283 299 240 266 190 133 154 250 203 217 239 244 249 254 259 266 263 264 262 242 233 226 232 240 238 231 235 241 239 230 222 205 204 221
356 1 195 170 225 290 260 302 311 46 256 306 280 260 171 205 200 217 6 278 250 250 259 263 267 259 256 261 250 235 230 229 241 241 235 228 228 232 235 234 224 219 213 218
186 172 217 104 190 277 311 350 26 234 292 258 282 239 241 284 314 332 315 281 280 260 273 282 276 266 262 258 240 233 230 247 244 234 227 223 221 225 224 222 221 214 212 205
263 190 198 173 216 225 275 224 265 240 248 279 283 282 234 251 270 269 250 242 253 256 274 271 252 260 266 262 245 232 250 249 242 228 221 219 215 215 214 212 206 200 199 199
269 150 194 36 298 285 300 300 260 279 268 280 291 301 220 231 242 258 304 298 303 308 300 297 284 260 265 269 255 250 245 250 228 223 222 218 211 207 205 210 210 207 203 210
221 12 316 275 289 313 298 257 262 316 308 297 292 270 308 330 305 281 295 298 283 282 298 305 287 275 270 274 267 259 249 238 222 224 218 217 211 209 207 209 213 214 217 220
359 9 31 246 272 225 259 304 310 306 331 329 339 339 354 344 329 324 313 299 297 310 315 312 303 287 281 275 266 265 257 241 222 211 213 209 208 208 210 208 214 221 227 230
Height
783 798 805 794 788 784 789 794 798 787 774 783 787 786 778 774 777 781 779 776 780 776 773 777 779 781 784 787 790 792 795 800 804 805 807 810 809 810 813 814 816 817 819 821
793 802 776 774 778 783 789 796 798 785 773 780 784 787 775 776 775 774 773 775 776 773 770 771 773 775 776 778 781 784 788 791 794 798 799 803 805 806 806 808 810 811 813 816
799 781 765 772 777 786 791 794 793 790 778 777 785 794 784 773 771 769 767 765 767 766 765 767 767 768 769 769 771 775 778 781 784 789 795 798 802 801 802 803 803 804 808 810
792 770 770 772 780 780 799 773 777 782 796 815 787 827 791 778 773 767 763 762 763 760 760 759 759 760 761 759 764 767 769 773 776 782 786 788 789 791 791 794 797 798 801 804
784 775 777 781 773 768 779 763 778 783 802 803 804 820 798 782 771 765 757 755 754 752 753 752 751 751 754 758 759 761 763 766 770 774 776 780 783 783 788 792 794 796 798 800
776 759 764 766 754 760 761 777 791 804 815 836 812 813 804 789 770 760 752 749 746 744 746 745 747 749 750 754 755 757 759 759 765 769 771 774 777 780 783 786 791 794 794 796
781 771 759 754 766 761 772 799 834 832 840 837 815 816 796 765 758 753 749 745 742 742 742 745 745 746 748 750 752 754 756 757 761 765 768 770 772 776 777 780 785 789 789 788
809 804 763 751 760 769 773 792 828 829 844 832 808 819 785 752 747 746 742 739 739 739 740 743 744 745 745 747 751 754 755 757 759 762 764 767 769 770 773 775 779 783 782 783
809 796 758 753 749 756 776 793 786 827 835 834 821 797 765 748 746 747 744 740 741 739 740 739 741 743 745 747 748 750 752 753 755 757 760 761 763 766 767 769 772 776 775 776
785 805 770 760 750 757 762 773 802 821 826 828 830 818 803 764 756 751 748 745 742 740 741 739 741 742 744 745 747 749 750 752 753 754 754 755 756 758 760 762 764 766 768 768
780 796 786 768 775 781 784 789 808 814 827 838 846 821 774 765 758 754 749 744 742 741 742 740 740 741 743 746 747 748 750 751 751 752 753 753 753 753 754 755 756 759 761 762
774 800 806 789 771 772 773 778 798 821 819 839 840 820 757 761 758 750 744 741 740 740 742 740 740 741 742 744 746 748 749 749 749 749 750 749 749 748 748 747 749 753 757 757
771 803 825 809 792 774 783 778 799 812 820 825 832 813 754 752 748 743 742 741 740 740 739 741 741 742 743 745 746 746 747 747 747 746 746 746 745 744 743 744 745 747 752 756
763 804 803 825 803 791 789 779 782 797 819 816 816 791 768 755 750 743 740 737 739 739 741 742 743 743 743 744 744 745 745 745 744 744 743 742 742 740 740 741 743 746 749 752
768 790 795 788 787 785 783 781 781 792 790 798 785 794 767 751 743 739 738 739 741 742 741 741 742 741 742 742 742 742 742 742 742 741 740 739 737 736 737 738 740 743 746 749
775 790 792 785 774 787 787 778 779 781 777 785 782 782 746 740 737 734 735 738 739 737 737 737 737 738 738 736 735 737 738 739 740 739 737 737 735 732 733 735 738 742 742 744
773 793 805 809 787 788 799 777 770 762 758 760 775 752 738 739 738 735 733 731 732 733 733 732 732 731 730 729 729 731 733 734 735 735 735 734 732 731 731 732 735 738 740 741
785 795 807 810 797 817 767 750 750 758 753 750 748 741 737 734 728 727 728 729 730 728 727 727 726 726 724 724 725 726 728 729 730 731 731 731 730 730 729 730 731 735 738 739
775 794 806 809 818 791 762 757 759 761 762 738 744 736 734 733 729 727 722 723 722 723 722 722 722 722 722 722 722 723 724 726 727 727 728 728 728 728 727 728 729 732 736 738
781 788 793 819 805 805 776 752 742 746 776 738 736 735 738 734 752 734 720 721 721 721 721 720 719 720 720 717 718 719 719 721 721 721 723 724 725 725 726 727 728 729 731 735
790 795 795 812 807 790 763 748 739 775 777 741 734 733 735 738 729 726 721 720 720 718 717 716 717 716 714 714 714 714 714 713 712 716 719 720 721 722 724 725 726 727 729 732
784 792 800 809 802 797 752 748 764 757 744 738 732 728 732 728 723 719 718 718 716 715 713 714 715 713 710 710 710 709 709 706 710 712 715 717 718 720 721 723 724 725 727 729
788 776 785 784 784 759 753 751 745 743 743 736 730 723 723 724 721 718 718 716 714 712 710 708 707 706 704 704 703 704 699 705 708 710 710 713 715 717 719 720 722 723 725 728
765 768 775 772 762 757 752 745 741 737 735 728 725 723 718 719 717 716 716 714 713 711 709 706 705 700 698 696 696 694 697 699 702 703 706 708 711 714 715 717 720 721 723 725
772 769 776 779 765 758 748 744 739 736 729 725 721 720 720 720 719 717 716 713 711 708 704 702 700 698 693 689 688 687 688 693 694 697 698 703 704 708 710 712 715 718 719 722
777 778 782 783 761 765 756 744 739 735 731 727 724 721 720 720 719 717 716 712 709 706 703 699 695 692 686 683 681 681 683 685 688 690 692 693 697 699 703 707 711 714 716 719